Volver al catálogo

SL-8 R/B

ActivoLEO
NORAD 6993·ROCKET BODY·🇷🇺 Russia

Lanzado Dec 19, 1973 desde Plesetsk Cosmodrome

Loading…

Próximos Pases (próximas 24 horas)

TLE

ActualizadoSource: Space-Track

Época: Sep 14, 2026, 10:07 UTC

1 06993U 73104J   26257.42190797  .00000051  00000-0  54535-3 0  9994
2 06993  74.0310  65.0914 0091770  75.5447 309.1121 12.30305992368452

Sigue SL-8 R/B en tiempo real con AllMySat

Download on the App Store